カタログに戻る

ASTRA-HYRAX

運用中軍事VLEO
NORAD 68627·PAYLOAD·🇺🇸 United States
この衛星名は、まだ公式ソースで確認されていません。

打ち上げ Apr 7, 2026 から Vandenberg Space Force Base

Loading…

次のパス (今後24時間)

TLE

最新Source: Space-Track

元期: Sep 14, 2026, 08:54 UTC

1 68627U 26074A   26257.37125299  .00007894  00000-0  31462-3 0  9995
2 68627  60.0171 195.9309 0037119  80.5272 280.0002 15.25471840 24383

AllMySatでASTRA-HYRAXをリアルタイム追跡

Download on the App Store